Location: Vancouver
(49.2500°N, 123.1330°W)
Time: 04:10:30
(UTC-07:00)

S-56A Canister/Altair - Visible Passes

Search period start: 26 July 2014 00:00
Search period end: 05 August 2014 00:00
Orbit: 633 x 2503 km, 38.9° (Epoch: 21 July)

Date Brightness Start Highest point End Pass type
(mag) Time Alt. Az. Time Alt. Az. Time Alt. Az.
26 Jul 8.6 02:33:03 31° S 02:33:06 31° S 02:37:55 10° ESE visible
26 Jul 8.6 04:31:23 10° WSW 04:36:05 24° SSW 04:39:56 10° SE visible
27 Jul 8.8 02:02:14 30° SSE 02:02:14 30° SSE 02:06:07 10° ESE visible
27 Jul 8.6 03:59:40 13° WSW 04:04:05 27° SSW 04:08:16 10° SE visible
27 Jul 10.0 23:17:55 10° SSW 23:22:41 19° S 23:22:41 19° S visible
28 Jul 9.2 01:31:27 25° SE 01:31:27 25° SE 01:34:18 10° ESE visible
28 Jul 8.6 03:28:53 20° SW 03:32:04 30° SSW 03:36:35 10° SE visible
28 Jul 9.9 22:45:20 10° SSW 22:52:44 21° SSE 22:55:04 19° SE visible
29 Jul 9.6 00:48:13 10° SW 01:00:44 19° ESE 01:02:27 10° ESE visible
29 Jul 8.6 02:58:11 28° SW 03:00:00 33° S 03:04:53 10° SE visible
29 Jul 9.1 04:59:20 10° WSW 05:02:35 15° SSW 05:05:26 10° S visible
29 Jul 10.1 22:12:48 10° S 22:20:21 20° SSE 22:26:22 10° ESE visible
30 Jul 9.1 00:15:21 10° SW 00:24:18 34° S 00:30:35 10° ESE visible
30 Jul 8.6 02:20:26 10° WSW 02:27:53 35° S 02:33:10 10° SE visible
30 Jul 9.0 04:26:23 10° WSW 04:30:38 18° SSW 04:34:08 10° SSE visible
30 Jul 10.3 21:40:19 10° S 21:47:56 19° SSE 21:54:06 10° ESE visible
30 Jul 9.3 23:42:28 10° SW 23:51:58 34° SSE 23:56:23 21° ESE visible
31 Jul 9.0 01:47:32 10° WSW 01:58:10 29° SSE 02:01:25 10° ESE visible
31 Jul 8.9 03:55:46 17° WSW 03:58:39 22° SSW 04:02:43 10° SSE visible
31 Jul 9.5 23:09:34 10° SW 23:19:34 34° SSE 23:26:27 11° ESE visible
01 Aug 8.8 01:14:34 10° WSW 01:23:31 40° S 01:23:55 40° S visible
01 Aug 8.9 03:20:33 10° WSW 03:27:26 25° SSW 03:31:14 10° SSE visible
01 Aug 9.7 22:36:40 10° SW 22:47:08 34° SSE 22:54:42 10° ESE visible
02 Aug 8.9 00:41:34 10° WSW 00:51:14 42° S 00:53:19 36° SSE visible
02 Aug 9.8 02:47:35 10° W 02:59:26 11° SSE 02:59:40 10° SE visible
02 Aug 9.8 22:03:48 10° SW 22:14:38 33° SSE 22:22:38 10° E visible
03 Aug 9.1 00:08:31 10° WSW 00:18:53 43° S 00:22:31 29° SE visible
03 Aug 9.4 02:14:34 10° W 02:19:56 27° SW 02:19:56 27° SW visible
03 Aug 10.0 21:30:58 10° SSW 21:42:05 32° SSE 21:50:29 10° E visible
03 Aug 9.2 23:35:27 10° WSW 23:46:29 44° S 23:51:38 22° ESE visible
04 Aug 9.2 01:41:31 10° W 01:49:04 35° SW 01:49:04 35° SW visible
04 Aug 9.4 23:02:22 10° WSW 23:14:00 45° S 23:20:44 16° ESE visible
